This is the latest recevied weather packets stored in our database for station/object IA5ITY-13. If no packets are shown the sender has not sent any weather packets the latest 10 day(s).
| Time | Temp. | Humidity | Pressure | Rain* | Wind** | Luminosity | Snow |
|---|---|---|---|---|---|---|---|
| 1777633509 | 18.89° C | 39% | 1022.6 hPa | 0 mm | - | - | - |
| 1777633232 | 20° C | 39% | 1022.8 hPa | 0 mm | - | - | - |
| 1777632909 | 20° C | 37% | 1022.7 hPa | 0 mm | - | - | - |
| 1777632613 | 18.89° C | 38% | 1022.8 hPa | 0 mm | - | - | - |
| 1777632312 | 20° C | 33% | 1022.9 hPa | 0 mm | - | - | - |
| 1777632012 | 18.89° C | 38% | 1022.5 hPa | 0 mm | - | - | - |
| 1777631709 | 18.89° C | 35% | 1022.9 hPa | 0 mm | - | - | - |
| 1777631423 | 20° C | 30% | 1022.9 hPa | 0 mm | - | - | - |
| 1777631109 | 18.89° C | 34% | 1023.1 hPa | 0 mm | - | - | - |
| 1777630813 | 18.89° C | 35% | 1023.2 hPa | 0 mm | - | - | - |
| 1777630512 | 18.89° C | 35% | 1023.2 hPa | 0 mm | - | - | - |
| 1777630213 | 18.89° C | 34% | 1023.2 hPa | 0 mm | - | - | - |
| 1777629909 | 18.89° C | 34% | 1023.2 hPa | 0 mm | - | - | - |
| 1777629634 | 20° C | 27% | 1023.2 hPa | 0 mm | - | - | - |
| 1777629309 | 20° C | 25% | 1023.3 hPa | 0 mm | - | - | - |
| 1777629013 | 18.89° C | 25% | 1023.3 hPa | 0 mm | - | - | - |
| 1777628713 | 20° C | 26% | 1023.3 hPa | 0 mm | - | - | - |
| 1777628412 | 21.11° C | 24% | 1023.4 hPa | 0 mm | - | - | - |
| 1777628109 | 21.11° C | 25% | 1023.4 hPa | 0 mm | - | - | - |
| 1777627824 | 18.89° C | 28% | 1023.5 hPa | 0 mm | - | - | - |
| 1777627509 | 20° C | 26% | 1023.5 hPa | 0 mm | - | - | - |
| 1777627213 | 18.89° C | 26% | 1023.5 hPa | 0 mm | - | - | - |
| 1777626913 | 20° C | 26% | 1023.5 hPa | 0 mm | - | - | - |
| 1777626613 | 20° C | 25% | 1023.6 hPa | 0 mm | - | - | - |
| 1777626309 | 20° C | 26% | 1023.6 hPa | 0 mm | - | - | - |
* Rain latest hour (hover to see other rain measurements)
** Current wind speed in m/s (hover to see current wind gust speed)